Aeroporto :
LOGIN :

Iscrizione | Disclaimer

   EN    FR    IT 

 










Sommario :    VFR   VFR Marginale   IFR   IFR Intensivo   IFR Molto Intensivo
Visibilità : 
Base nubi : 
>= 8 km
>= 3000ft
5 / 8 km
1000 / 3000 ft
1500m / 5 km
500 / 1000 ft
800 / 1500m
200 / 500 ft
< 800m
< 200 ft
Simboli :   Temporali  Nebbia  Neve Forte  Precipitazioni Forti  Vento > 20 kt
SIGMETs :   Varie  Temporali  Ghiacco  Turbolenza  Onda orograficha  Ceneri Vulcaniche






- Altitudine del aeroporto : 423 ft
- Codice IATA : PIS


LFBI - Poitiers

ULTIMO METAR :
  • 290930Z AUTO 03021KT CAVOK 05/M02 Q1025

METARs OBSOLETI :
  • 290900Z AUTO 03018KT 9999 FEW032 OVC084 06/M01 Q1025
  • 290830Z AUTO 03021KT 9999 FEW033 OVC082 06/M00 Q1025
  • 290800Z AUTO 03019KT 9999 BKN033 BKN068 OVC090 06/M00 Q1025
  • 290730Z AUTO 03023KT 9999 OVC032 06/M00 Q1024
  • 290700Z AUTO 03019KT 9999 OVC028 06/00 Q1024

Previsioni scadute.



MetMap, La meteo Aeronautica in un colpo d'occhio ! - Copyright ORBIFLY Dicembre 2007 - Disclaimer

ORBIFLY MET'MAP TEAM :

Programmazione e sviluppo : Alexandra Zaïnal
Concezione : Baudouin d'Aumeries
Aiuto per la programmazione : Marc-Olivier Méhu
Supporto tecnico e logistico : Manuel Goepfert
Aiuto per la traduzione : Arnaldo La Scala

Contatto : metmap@orbifly.com




FONTI E CREDITI :

   NOAA